Location: Unspecified
(41.1850°N, 73.2650°W)
Time: 21:17:40
(UTC+00:00)

Aureole 1 Rocket - Pass Details

Date: 14 December 2025
Orbit: 372 x 1168 km, 73.9° (Epoch: 12 January)

Event Time Altitude Azimuth Distance (km) Brightness Sun altitude
Rises 22:07:11 0° 187° (S) 2,735 6.8 -7.9°
Reaches altitude 10° 22:09:10 10° 184° (S) 1,948 6.0 -8.2°
Maximum altitude 22:13:29 61° 104° (ESE) 809 3.4 -9.0°
Drops below altitude 10° 22:19:00 10° 26° (NNE) 2,480 5.7 -9.9°
Enters shadow 22:21:14 - 23° (NNE) 3,348 6.4 -10.3°
